Satellite: AO-40 Catalog number: 26609 Epoch time: 00347.08068287 Element set: 7 Inclination: 8.7808 deg RA of node: 233.1519 deg Eccentricity: 0.8061857 Arg of perigee: 198.5088 deg Mean anomaly: 90.3015 deg Mean motion: 1.25907436 rev/day Decay rate: 0.00000e+00 rev/day^2 Epoch rev: 53 Checksum: 282